sat.trackr.live / text

‹ back to catalog

STARLINK-35007

NORAD 65287 · 2025-184Q

PAYLOAD ACTIVE UNKNOWN

§ Identity

Operator
Country
US
Launch date
2025-08-22
Launch site
AFWTR
Launch vehicle
Mass (kg)
RCS (m²)

Purposes: comms

External: N2YO · Heavens-Above · Gunter

§ Orbital elements

Epoch: 2026-09-19T21:40:48.480960Z

Period
93.91 min
Inclination
97.2855°
Eccentricity
0.0000595
Mean motion
15.33456625 rev/d
Perigee alt
465.1 km
Apogee alt
465.9 km
Semi-major
6,843.6 km
B*
4.6957e-4
RAAN
310.8889°
Arg perigee
84.7898°
Mean anomaly
275.3413°
Rev number
6,057

§ Raw data

STARLINK-350071 65287U 25184Q   26262.90333890  .00015120  00000+0  46957-3 0  99932 65287  97.2855 310.8889 0000595  84.7898 275.3413 15.33456625 60579

JSON: /api/v1/satellites/65287 · /tle

For live sub-satellite position, see the globe view (requires WebGL).

§ Visibility from observer

Set your observer location to see the next 7 days of passes ≥ 10°. The values pass through the URL so the page stays shareable.

No JS? Fill the form by hand. The geolocation button needs JavaScript.